When you browse on this site, cookies collect data to enhance your experience and personalize the content and advertising you see.
Visit our Privacy Policy to learn more. By continuing to use the site, you agree to this use of cookies and data.
  • In Portugal
  • List of Countries
  • For 7 days
  • Water Temperature
  • Satellite Maps
  • Weather Map
  • Weather Widgets
  • user-avatar
    Login

    Hourly Weather Borowno

    Today, 21 March, Thursday

    Time Temperature Precipitation Wind Pressure Humidity
    00:00 +3°C° 0 mm 1 mps 730 mmHg 68%
    01:00 +2°C° 0 mm 2 mps 730 mmHg 67%
    02:00 +2°C° 0 mm 2 mps 730 mmHg 68%
    03:00 +2°C° 0 mm 2 mps 730 mmHg 69%
    04:00 +2°C° 0 mm 2 mps 730 mmHg 70%
    05:00 +2°C° 0 mm 2 mps 730 mmHg 71%
    06:00 +2°C° 0 mm 2 mps 730 mmHg 71%
    07:00 +3°C° 0 mm 2 mps 730 mmHg 71%
    08:00 +5°C° 0 mm 2 mps 730 mmHg 69%
    09:00 +7°C° 0 mm 2 mps 731 mmHg 67%
    10:00 +9°C° 0 mm 2 mps 731 mmHg 66%
    11:00 +10°C° 0 mm 2 mps 731 mmHg 64%
    12:00 +12°C° 0 mm 2 mps 731 mmHg 62%
    13:00 +13°C° 0 mm 2 mps 731 mmHg 61%
    14:00 +13°C° 0 mm 2 mps 730 mmHg 61%
    15:00 +13°C° 0 mm 2 mps 730 mmHg 62%
    16:00 +13°C° 0 mm 2 mps 730 mmHg 62%
    17:00 +10°C° 0 mm 2 mps 729 mmHg 69%
    18:00 +10°C° 0 mm 1 mps 729 mmHg 76%
    19:00 +8°C° 0 mm 1 mps 729 mmHg 83%
    20:00 +8°C° 0 mm 1 mps 729 mmHg 84%
    21:00 +8°C° 0 mm 1 mps 729 mmHg 86%
    22:00 +7°C° 0 mm 1 mps 729 mmHg 88%
    23:00 +7°C° 0 mm 1 mps 729 mmHg 88%

    Tomorrow, 22 March, Friday

    Time Temperature Precipitation Wind Pressure Humidity
    00:00 +7°C° 0 mm 1 mps 729 mmHg 89%
    01:00 +7°C° 0 mm 1 mps 729 mmHg 89%
    02:00 +6°C° 0 mm 1 mps 729 mmHg 89%
    03:00 +6°C° 0 mm 1 mps 729 mmHg 90%
    04:00 +6°C° 0 mm 1 mps 729 mmHg 90%
    05:00 +6°C° 0 mm 1 mps 729 mmHg 89%
    06:00 +7°C° 0 mm 1 mps 729 mmHg 89%
    07:00 +6°C° 0 mm 0 mps 729 mmHg 89%
    08:00 +9°C° 0 mm 1 mps 730 mmHg 82%
    09:00 +11°C° 0 mm 1 mps 730 mmHg 76%
    10:00 +13°C° 0 mm 1 mps 730 mmHg 70%
    11:00 +13°C° 0 mm 1 mps 730 mmHg 69%
    12:00 +14°C° 0 mm 1 mps 730 mmHg 67%
    13:00 +14°C° 0 mm 2 mps 730 mmHg 66%
    14:00 +14°C° 0 mm 2 mps 729 mmHg 67%
    15:00 +14°C° 0 mm 2 mps 729 mmHg 67%
    16:00 +14°C° 0 mm 2 mps 728 mmHg 68%
    17:00 +13°C° 0 mm 2 mps 728 mmHg 74%
    18:00 +11°C° 0 mm 1 mps 728 mmHg 81%
    19:00 +10°C° 0 mm 1 mps 728 mmHg 87%
    20:00 +9°C° 0 mm 1 mps 728 mmHg 88%
    21:00 +9°C° 0 mm 1 mps 728 mmHg 90%
    22:00 +9°C° 0 mm 1 mps 728 mmHg 91%
    23:00 +8°C° 0 mm 1 mps 727 mmHg 91%

    Day after tomorrow, 23 March, Saturday

    Time Temperature Precipitation Wind Pressure Humidity
    00:00 +8°C° 0 mm 1 mps 727 mmHg 91%
    01:00 +8°C° 0 mm 1 mps 727 mmHg 92%
    02:00 +8°C° 0 mm 1 mps 727 mmHg 91%
    03:00 +8°C° 0 mm 1 mps 726 mmHg 91%
    04:00 +8°C° 0 mm 1 mps 726 mmHg 90%
    05:00 +7°C° 0 mm 2 mps 726 mmHg 89%
    06:00 +7°C° 0 mm 2 mps 726 mmHg 89%
    07:00 +7°C° 0 mm 2 mps 726 mmHg 88%
    08:00 +9°C° 0 mm 2 mps 726 mmHg 79%
    09:00 +13°C° 0 mm 2 mps 726 mmHg 70%
    10:00 +15°C° 0 mm 2 mps 726 mmHg 60%
    11:00 +16°C° 0 mm 2 mps 726 mmHg 57%
    12:00 +17°C° 0 mm 2 mps 726 mmHg 53%
    13:00 +17°C° 0 mm 2 mps 725 mmHg 49%
    14:00 +17°C° 0 mm 2 mps 725 mmHg 49%
    15:00 +17°C° 0 mm 2 mps 725 mmHg 50%
    16:00 +17°C° 0 mm 2 mps 724 mmHg 50%
    17:00 +16°C° 0 mm 2 mps 724 mmHg 58%
    18:00 +14°C° 0 mm 2 mps 724 mmHg 65%
    19:00 +12°C° 0 mm 1 mps 724 mmHg 72%
    20:00 +12°C° 0 mm 2 mps 725 mmHg 77%
    21:00 +10°C° 0 mm 2 mps 725 mmHg 82%
    22:00 +9°C° 0 mm 2 mps 725 mmHg 87%
    23:00 +9°C° 0.1 mm 3 mps 725 mmHg 88%

    24 March, Sunday

    Time Temperature Precipitation Wind Pressure Humidity
    00:00 +8°C° 0.1 mm 3 mps 726 mmHg 89%
    01:00 +7°C° 0.1 mm 4 mps 726 mmHg 91%
    02:00 +7°C° 0 mm 3 mps 726 mmHg 88%
    03:00 +5°C° 0 mm 3 mps 726 mmHg 84%
    04:00 +4°C° 0 mm 3 mps 725 mmHg 81%
    05:00 +3°C° 0 mm 3 mps 726 mmHg 78%
    06:00 +3°C° 0 mm 3 mps 726 mmHg 75%
    07:00 +3°C° 0 mm 2 mps 726 mmHg 72%
    08:00 +4°C° 0 mm 2 mps 726 mmHg 67%
    09:00 +5°C° 0 mm 2 mps 726 mmHg 62%
    10:00 +6°C° 0 mm 2 mps 726 mmHg 57%
    11:00 +7°C° 0 mm 2 mps 726 mmHg 54%
    12:00 +7°C° 0 mm 2 mps 726 mmHg 52%
    13:00 +8°C° 0 mm 2 mps 725 mmHg 49%
    14:00 +8°C° 0 mm 2 mps 725 mmHg 49%
    15:00 +8°C° 0 mm 3 mps 725 mmHg 49%
    16:00 +8°C° 0 mm 3 mps 724 mmHg 48%
    17:00 +7°C° 0 mm 2 mps 724 mmHg 51%
    18:00 +6°C° 0 mm 2 mps 724 mmHg 54%
    19:00 +5°C° 0 mm 2 mps 724 mmHg 57%
    20:00 +4°C° 0 mm 2 mps 724 mmHg 60%
    21:00 +3°C° 0 mm 2 mps 724 mmHg 64%
    22:00 +3°C° 0 mm 1 mps 724 mmHg 67%
    23:00 +3°C° 0 mm 1 mps 724 mmHg 68%

    25 March, Monday

    Time Temperature Precipitation Wind Pressure Humidity
    00:00 +2°C° 0 mm 1 mps 724 mmHg 70%
    01:00 +2°C° 0 mm 1 mps 724 mmHg 71%
    02:00 +2°C° 0 mm 1 mps 724 mmHg 72%
    03:00 +2°C° 0 mm 1 mps 724 mmHg 72%
    04:00 -1°C° 0 mm 2 mps 724 mmHg 73%
    05:00 +1°C° 0 mm 2 mps 724 mmHg 72%
    06:00 +1°C° 0 mm 2 mps 724 mmHg 71%
    07:00 +1°C° 0 mm 3 mps 724 mmHg 70%
    08:00 +1°C° 0 mm 4 mps 724 mmHg 63%
    09:00 +2°C° 0 mm 5 mps 724 mmHg 56%
    10:00 +3°C° 0 mm 6 mps 724 mmHg 50%
    11:00 +3°C° 0 mm 6 mps 724 mmHg 53%
    12:00 +3°C° 0 mm 7 mps 723 mmHg 57%
    13:00 +3°C° 0 mm 7 mps 723 mmHg 61%
    14:00 +3°C° 0.1 mm 7 mps 722 mmHg 61%
    15:00 +3°C° 0.1 mm 7 mps 722 mmHg 62%
    16:00 +3°C° 0.1 mm 7 mps 722 mmHg 63%
    17:00 +3°C° 0.1 mm 7 mps 722 mmHg 67%
    18:00 +2°C° 0.1 mm 6 mps 721 mmHg 72%
    19:00 +2°C° 0.1 mm 6 mps 721 mmHg 77%
    20:00 +1°C° 0.1 mm 6 mps 721 mmHg 77%
    21:00 +1°C° 0.1 mm 6 mps 721 mmHg 77%
    22:00 -1°C° 0.1 mm 6 mps 721 mmHg 77%
    23:00 -1°C° 0.2 mm 6 mps 721 mmHg 78%

    26 March, Tuesday

    Time Temperature Precipitation Wind Pressure Humidity
    00:00 -1°C° 0.2 mm 6 mps 721 mmHg 79%
    01:00 -1°C° 0.2 mm 6 mps 721 mmHg 79%
    02:00 -1°C° 0 mm 6 mps 720 mmHg 80%
    03:00 -2°C° 0 mm 6 mps 720 mmHg 80%
    04:00 -2°C° 0 mm 5 mps 720 mmHg 81%
    05:00 -3°C° 0 mm 6 mps 720 mmHg 79%
    06:00 -3°C° 0 mm 6 mps 720 mmHg 77%
    07:00 -3°C° 0 mm 7 mps 720 mmHg 75%
    08:00 -2°C° 0.1 mm 7 mps 720 mmHg 70%
    09:00 -1°C° 0.1 mm 8 mps 721 mmHg 65%
    10:00 -1°C° 0.1 mm 8 mps 721 mmHg 60%
    11:00 0°C° 0 mm 8 mps 721 mmHg 55%
    12:00 +1°C° 0 mm 8 mps 722 mmHg 49%
    13:00 +1°C° 0 mm 8 mps 722 mmHg 44%
    14:00 +1°C° 0 mm 8 mps 722 mmHg 44%
    15:00 +2°C° 0 mm 7 mps 722 mmHg 45%
    16:00 +2°C° 0 mm 7 mps 722 mmHg 45%
    17:00 +1°C° 0 mm 6 mps 723 mmHg 52%
    18:00 0°C° 0 mm 5 mps 723 mmHg 59%
    19:00 -1°C° 0 mm 4 mps 724 mmHg 66%
    20:00 0°C° 0 mm 3 mps 724 mmHg 68%
    21:00 -1°C° 0 mm 3 mps 724 mmHg 70%
    22:00 -2°C° 0 mm 3 mps 725 mmHg 73%
    23:00 -2°C° 0 mm 3 mps 725 mmHg 75%
    Show more